[[{"header":{"parameterUnit":"m.s-1","parameterCategory":1,"la1":30.2991,"la2":30.254,"lo1":-89.0895,"lo2":-89.0444,"dy":0.0017,"dx":0.0017,"nx":28,"ny":28,"refTime":"2024-07-01T09:00:00:Z","depth":0,"parameterNumber":2,"parameterNumberName":"U-component_of_WINDS"},"data":[0,0,0,0,0,0,0,0,0,0,0,0,0,0,0,0,0,0,0,0,0,0,0,0,0,0,0,0,0,0,0,0,0,0,0,0,0,0,0,0,0,0,0,0,0,0,0,0,0,0,0,0,0,0,0,0,0,0,3.5235,3.5237,0,3.5439,3.5441,3.5443,3.5429,3.5426,3.5423,3.542,3.5635,3.5643,3.5651,0,0,0,0,0,0,0,0,0,0,0,0,0,3.4837,3.4845,3.5234,3.5237,3.524,3.5438,3.5441,3.5444,3.543,3.5426,3.5422,3.5419,3.5632,3.5642,3.5652,0,0,0,0,0,0,0,0,0,0,0,0,0,3.5022,3.4847,3.5234,3.5256,3.526,3.5438,3.5441,3.5445,3.543,3.5426,3.5421,3.5417,3.5628,3.5641,3.5654,3.5824,0,0,3.5693,3.5698,0,0,0,0,0,0,0,0,3.5012,3.5037,3.5251,3.5255,3.526,3.5404,3.538,3.5572,3.5432,3.5366,3.542,3.5415,3.5562,3.558,3.5628,3.5834,3.5843,3.5694,3.5702,3.5707,3.5711,0,0,0,0,0,0,0,3.4999,3.5028,3.5315,3.5254,3.5259,3.5258,3.5279,3.5416,3.5487,3.5371,3.5371,3.5395,3.5564,3.5616,3.5633,3.5846,3.5693,3.5705,3.5713,3.5718,3.6201,3.6206,0,0,0,0,0,0,3.4981,3.5018,3.5309,3.5322,3.5122,3.5268,3.5292,3.5362,3.5486,3.55,3.5399,3.5393,3.5596,3.5618,3.5641,3.5848,3.5707,3.5719,3.5726,3.6196,3.6203,3.6208,0,0,0,0,0,0,3.4972,3.5007,3.5301,3.517,3.5207,3.528,3.5359,3.5369,3.5421,3.5506,3.5519,3.5439,3.5594,3.5623,3.5778,3.5855,3.5725,3.5736,3.619,3.6198,3.6205,3.6264,0,0,0,0,0,0,3.4961,3.5004,3.5068,3.5171,3.5214,3.5433,3.5364,3.5376,3.5442,3.5438,3.5547,3.5561,3.5592,3.5759,3.5791,3.587,3.5746,3.6184,3.6194,3.6203,3.6255,3.6272,3.6287,0,0,0,0,0,3.4947,3.5078,3.5071,3.5107,3.5296,3.5438,3.5462,3.5494,3.5449,3.5515,3.5569,3.5558,3.5841,3.5775,3.581,3.5895,3.6179,3.6191,3.6202,3.6248,3.6269,3.6287,0,0,0,0,0,0,3.4984,3.5092,3.5086,3.5254,3.5336,3.5435,3.5519,3.5515,3.5614,3.5606,3.5643,3.5668,3.5823,3.5875,3.5799,3.6066,3.6004,3.6024,3.6027,3.6048,3.6063,3.6048,3.5757,0,0,0,0,0,3.5011,3.5116,3.5205,3.5345,3.5386,3.5446,3.5509,3.5526,3.5614,3.5649,3.5715,3.5802,3.5911,3.5982,3.6087,3.6262,3.6286,3.6338,3.6354,3.6367,3.6384,3.648,3.6504,3.6246,3.6246,3.6246,0,0,3.507,3.5142,3.5206,3.5354,3.542,3.5529,3.5475,3.5593,3.5675,3.5668,3.5818,3.5869,3.5969,3.6135,3.6211,3.6183,3.646,3.6382,3.6391,3.6401,3.6495,3.6519,3.6541,3.6254,3.6253,3.6252,0,0,3.5232,3.5296,3.542,3.5486,3.5586,3.5625,3.5654,3.5754,3.5787,3.5938,3.5934,3.6033,3.622,3.6291,3.6351,3.654,3.6533,3.6573,3.6657,3.6751,3.6771,3.6789,3.6857,3.688,3.6589,3.6589,3.6589,0,3.5293,3.5455,3.5484,3.5602,3.5668,3.5664,3.579,3.5854,3.5984,3.603,3.5996,3.6229,3.6296,3.6479,3.6524,3.6574,3.6609,3.6561,3.6765,3.6784,3.6801,3.6866,3.6891,3.6593,3.6593,3.6592,3.6592,0,3.5525,3.5638,3.5725,3.5849,3.5924,3.6046,3.6094,3.6168,3.6178,3.622,3.6374,3.6454,3.6575,3.6619,3.6632,3.6804,3.6783,3.6757,3.6695,3.683,3.6891,3.6916,3.6599,3.6598,3.6597,3.6596,0,0,3.5717,3.5853,3.5885,3.5941,3.6051,3.6139,3.6261,3.6377,3.644,3.6529,3.6633,3.679,3.6766,3.6835,3.6855,3.6938,3.7082,3.6901,3.6904,3.6932,3.7277,3.7296,3.7324,3.7077,3.7082,3.7086,3.7269,0,3.5891,3.6104,3.6133,3.6323,3.6428,3.6426,3.6532,3.6611,3.6654,3.6751,3.6799,3.691,3.6869,3.6911,3.6992,3.7047,3.7151,3.7034,3.7176,3.718,3.7151,3.7356,3.7377,3.7546,3.7293,3.7297,3.73,0,3.6122,3.6215,3.6415,3.6509,3.6555,3.6649,3.6758,3.685,3.694,3.6966,3.7042,3.7052,3.7179,3.7111,3.7288,3.7208,3.7267,3.7303,3.731,3.7325,3.7248,3.7377,3.76,3.7625,3.7338,3.7335,3.7332,0,3.6242,3.6418,3.656,3.6608,3.6722,3.6789,3.6839,3.6925,3.6993,3.7089,3.7133,3.7243,3.7303,3.7389,3.7429,3.7376,3.7603,3.7539,3.7629,3.7628,3.7678,3.7674,3.7913,3.7716,3.7715,3.7715,3.7714,0,3.6433,3.6555,3.6616,3.6703,3.684,3.6873,3.7009,3.7057,3.7134,3.7232,3.7237,3.7329,3.7376,3.7475,3.7508,3.7649,3.7677,3.7702,3.7709,3.7701,3.7698,3.7741,3.7731,3.7721,3.772,3.7719,3.7717,0,3.6591,3.6636,3.6791,3.6885,3.6912,3.7009,3.709,3.7176,3.7217,3.7341,3.7372,3.7438,3.7556,3.7603,3.7748,3.777,3.7933,3.7931,3.7902,3.7904,3.7991,3.7982,3.8267,3.8306,3.8082,3.8084,3.8086,0,3.671,3.6803,3.6907,3.6972,3.7024,3.7129,3.7198,3.7234,3.7305,3.7415,3.7488,3.7604,3.77,3.7888,3.795,3.8061,3.8062,3.8154,3.8079,3.8068,3.8064,3.8057,3.8067,3.8168,3.817,3.8172,3.8174,0,3.6916,3.6933,3.7031,3.7137,3.7218,3.7303,3.7387,3.744,3.7489,3.757,3.7689,3.7762,3.7909,3.8025,3.8139,3.8193,3.8193,3.8196,3.8223,3.8217,3.8196,3.8208,3.794,3.819,3.8188,3.8187,3.8186,3.8186,3.7059,3.7141,3.7227,3.7335,3.7401,3.7479,3.7564,3.7615,3.7714,3.7834,3.785,3.7978,3.8066,3.8219,3.8278,3.8379,3.8356,3.8394,3.8404,3.8413,3.8419,3.8179,3.84,3.84,3.84,3.8399,3.8399,0,3.7265,3.7319,3.7419,3.7534,3.762,3.7609,3.77,3.7773,3.7885,3.7966,3.8059,3.8196,3.8309,3.8379,3.8493,3.8561,3.8563,3.8589,3.8585,3.8598,3.8434,3.8399,3.8585,3.8585,3.8585,3.8585,3.8585,3.8585,3.7383,3.7522,3.755,3.7722,3.7776,3.79,3.7953,3.8025,3.809,3.8242,3.8334,3.8378,3.8456,3.8575,3.8678,3.8696,3.8738,3.8766,3.8783,3.8628,3.8609,3.8591,3.8558,3.8775,3.8775,3.8938,3.894,3.8941]},{"header":{"parameterUnit":"m.s-1","parameterCategory":1,"la1":30.2991,"la2":30.254,"lo1":-89.0895,"lo2":-89.0444,"dy":0.0017,"dx":0.0017,"nx":28,"ny":28,"refTime":"2024-07-01T09:00:00:Z","depth":0,"parameterNumber":3,"parameterNumberName":"V-component_of_WINDS"},"data":[0,0,0,0,0,0,0,0,0,0,0,0,0,0,0,0,0,0,0,0,0,0,0,0,0,0,0,0,0,0,0,0,0,0,0,0,0,0,0,0,0,0,0,0,0,0,0,0,0,0,0,0,0,0,0,0,0,0,-0.4695,-0.4695,0,-0.469,-0.469,-0.469,-0.4693,-0.4693,-0.4693,-0.4693,-0.4686,-0.4685,-0.4685,0,0,0,0,0,0,0,0,0,0,0,0,0,-0.4708,-0.4708,-0.4695,-0.4695,-0.4695,-0.469,-0.469,-0.4689,-0.4693,-0.4693,-0.4693,-0.4693,-0.4686,-0.4685,-0.4685,0,0,0,0,0,0,0,0,0,0,0,0,0,-0.4702,-0.4708,-0.4695,-0.4696,-0.4696,-0.469,-0.469,-0.4689,-0.4693,-0.4693,-0.4693,-0.4693,-0.4686,-0.4685,-0.4685,-0.4677,0,0,-0.4683,-0.4683,0,0,0,0,0,0,0,0,-0.4703,-0.4702,-0.4696,-0.4696,-0.4696,-0.4692,-0.4691,-0.4685,-0.4693,-0.4694,-0.4693,-0.4693,-0.4687,-0.4687,-0.4685,-0.4676,-0.4676,-0.4683,-0.4683,-0.4683,-0.4682,0,0,0,0,0,0,0,-0.4703,-0.4702,-0.4693,-0.4696,-0.4696,-0.4697,-0.4696,-0.469,-0.4689,-0.4694,-0.4694,-0.4693,-0.4687,-0.4686,-0.4685,-0.4676,-0.4683,-0.4683,-0.4682,-0.4682,-0.466,-0.466,0,0,0,0,0,0,-0.4704,-0.4703,-0.4693,-0.4693,-0.47,-0.4696,-0.4696,-0.4693,-0.4689,-0.4689,-0.4693,-0.4694,-0.4686,-0.4686,-0.4685,-0.4675,-0.4683,-0.4682,-0.4682,-0.4661,-0.466,-0.466,0,0,0,0,0,0,-0.4704,-0.4703,-0.4694,-0.4698,-0.4697,-0.4696,-0.4693,-0.4693,-0.4691,-0.4689,-0.4689,-0.4692,-0.4687,-0.4685,-0.4679,-0.4675,-0.4682,-0.4681,-0.4661,-0.4661,-0.466,-0.4656,0,0,0,0,0,0,-0.4704,-0.4703,-0.47,-0.4698,-0.4696,-0.4688,-0.4693,-0.4693,-0.469,-0.4691,-0.4687,-0.4687,-0.4687,-0.468,-0.4678,-0.4674,-0.4681,-0.4661,-0.4661,-0.466,-0.4656,-0.4655,-0.4654,0,0,0,0,0,-0.4705,-0.4698,-0.47,-0.4699,-0.4693,-0.4688,-0.4687,-0.4687,-0.469,-0.4687,-0.4686,-0.4687,-0.4676,-0.4679,-0.4677,-0.4673,-0.4662,-0.4661,-0.466,-0.4657,-0.4655,-0.4654,0,0,0,0,0,0,-0.4699,-0.4698,-0.47,-0.4692,-0.469,-0.4688,-0.4684,-0.4686,-0.4682,-0.4683,-0.4683,-0.4682,-0.4675,-0.4674,-0.4677,-0.4665,-0.4669,-0.4668,-0.4667,-0.4666,-0.4665,-0.4665,-0.468,0,0,0,0,0,-0.4697,-0.4694,-0.4693,-0.4687,-0.4686,-0.4685,-0.4683,-0.4684,-0.4681,-0.468,-0.4678,-0.4675,-0.4671,-0.4668,-0.4664,-0.4656,-0.4656,-0.4653,-0.4652,-0.4651,-0.465,-0.4646,-0.4645,-0.4658,-0.4658,-0.4658,0,0,-0.4693,-0.4692,-0.469,-0.4686,-0.4684,-0.468,-0.4684,-0.468,-0.4677,-0.4679,-0.4673,-0.4672,-0.4668,-0.4661,-0.4658,-0.466,-0.4647,-0.465,-0.465,-0.4649,-0.4645,-0.4644,-0.4643,-0.4658,-0.4658,-0.4658,0,0,-0.4683,-0.4682,-0.4677,-0.4676,-0.4674,-0.4674,-0.4672,-0.467,-0.467,-0.4664,-0.4666,-0.4662,-0.4655,-0.4653,-0.4651,-0.4641,-0.4642,-0.464,-0.4635,-0.4631,-0.463,-0.4629,-0.4626,-0.4625,-0.4639,-0.4639,-0.4639,0,-0.4678,-0.4673,-0.4674,-0.467,-0.4668,-0.4671,-0.4666,-0.4664,-0.466,-0.4659,-0.4661,-0.4653,-0.4651,-0.4643,-0.4641,-0.4639,-0.4638,-0.464,-0.463,-0.4629,-0.4628,-0.4625,-0.4624,-0.4639,-0.4639,-0.4639,-0.4639,0,-0.4666,-0.4663,-0.4659,-0.4656,-0.4654,-0.4649,-0.465,-0.4647,-0.4648,-0.4648,-0.4642,-0.464,-0.4636,-0.4634,-0.4635,-0.4627,-0.4628,-0.463,-0.4634,-0.4627,-0.4624,-0.4623,-0.4638,-0.4638,-0.4639,-0.4639,0,0,-0.4652,-0.4651,-0.465,-0.4649,-0.4647,-0.4644,-0.464,-0.4636,-0.4634,-0.4632,-0.4628,-0.4623,-0.4625,-0.4622,-0.4623,-0.462,-0.4613,-0.4622,-0.4622,-0.462,-0.4604,-0.4603,-0.4601,-0.4614,-0.4613,-0.4613,-0.4604,0,-0.4642,-0.4635,-0.4637,-0.4629,-0.4626,-0.4629,-0.4625,-0.4624,-0.4623,-0.462,-0.462,-0.4616,-0.4619,-0.4618,-0.4615,-0.4614,-0.4609,-0.4615,-0.461,-0.461,-0.461,-0.46,-0.4598,-0.4589,-0.4603,-0.4603,-0.4603,0,-0.4629,-0.4628,-0.462,-0.462,-0.4618,-0.4615,-0.4612,-0.461,-0.4608,-0.4608,-0.4606,-0.4608,-0.4603,-0.4607,-0.4601,-0.4605,-0.4603,-0.4602,-0.4602,-0.4601,-0.4606,-0.4598,-0.4587,-0.4585,-0.4601,-0.4601,-0.4601,0,-0.462,-0.4615,-0.4611,-0.461,-0.4609,-0.4607,-0.4606,-0.4605,-0.4603,-0.4601,-0.46,-0.4597,-0.4595,-0.4593,-0.4593,-0.4596,-0.4587,-0.4591,-0.4587,-0.4587,-0.4584,-0.4584,-0.4572,-0.4583,-0.4583,-0.4583,-0.4583,0,-0.4608,-0.4604,-0.4606,-0.4603,-0.4598,-0.46,-0.4595,-0.4595,-0.4594,-0.4591,-0.4593,-0.459,-0.4591,-0.4588,-0.4589,-0.4584,-0.4583,-0.4583,-0.4583,-0.4582,-0.4582,-0.4581,-0.4581,-0.4583,-0.4583,-0.4583,-0.4583,0,-0.4596,-0.4598,-0.4593,-0.4593,-0.4593,-0.459,-0.459,-0.4587,-0.4587,-0.4583,-0.4583,-0.4583,-0.458,-0.458,-0.4576,-0.4577,-0.457,-0.4571,-0.4571,-0.4571,-0.4567,-0.4567,-0.4553,-0.4551,-0.4564,-0.4564,-0.4564,0,-0.4589,-0.4585,-0.4586,-0.4584,-0.4584,-0.4581,-0.458,-0.4582,-0.458,-0.4579,-0.4576,-0.4573,-0.4571,-0.4565,-0.4565,-0.4562,-0.4563,-0.4558,-0.4563,-0.4563,-0.4563,-0.4563,-0.4563,-0.4557,-0.4557,-0.4557,-0.4557,0,-0.4575,-0.4577,-0.4575,-0.4573,-0.4572,-0.457,-0.4569,-0.4568,-0.457,-0.4568,-0.4565,-0.4563,-0.456,-0.4557,-0.4555,-0.4554,-0.4556,-0.4556,-0.4555,-0.4554,-0.4554,-0.4554,-0.4569,-0.4556,-0.4556,-0.4556,-0.4556,-0.4556,-0.4565,-0.4563,-0.4563,-0.4561,-0.456,-0.456,-0.4557,-0.4558,-0.4556,-0.4553,-0.4555,-0.4552,-0.4551,-0.4548,-0.4547,-0.4544,-0.4546,-0.4544,-0.4544,-0.4543,-0.4543,-0.4555,-0.4544,-0.4544,-0.4544,-0.4544,-0.4544,0,-0.4552,-0.4552,-0.4551,-0.455,-0.4548,-0.4551,-0.455,-0.4548,-0.4546,-0.4545,-0.4543,-0.454,-0.4538,-0.4538,-0.4535,-0.4533,-0.4534,-0.4533,-0.4533,-0.4532,-0.4541,-0.4543,-0.4532,-0.4532,-0.4532,-0.4532,-0.4532,-0.4532,-0.4545,-0.4541,-0.4542,-0.4538,-0.4538,-0.4536,-0.4535,-0.4534,-0.4534,-0.4531,-0.4529,-0.4529,-0.4529,-0.4527,-0.4525,-0.4525,-0.4524,-0.4522,-0.4522,-0.453,-0.4532,-0.4533,-0.4534,-0.4522,-0.4522,-0.4514,-0.4513,-0.4513]}]]